Date,TemperatureHighF,TemperatureAvgF,TemperatureLowF,DewpointHighF,DewpointAvgF,DewpointLowF,HumidityHigh,HumidityAvg,HumidityLow,PressureMaxIn,PressureMinIn,WindSpeedMaxMPH,WindSpeedAvgMPH,GustSpeedMaxMPH,PrecipitationSumIn
2013-1-1,38.1,30.8,19.5,27.3,18.4,5.5,78,60,48,29.93,29.63,12,3,21,0.01
2013-1-2,30.5,18.2,5.6,15.4,8.5,2.3,92,67,50,30.27,29.75,7,2,16,0.00
2013-1-3,24.9,12.8,-0.9,10.1,0.1,-6.6,82,59,30,30.34,29.93,6,1,12,0.00
2013-1-4,39.8,25.9,8.5,24.9,18.4,6.7,93,75,52,30.17,29.63,7,1,17,0.01
2013-1-5,42.7,30.2,18.4,25.3,21.0,16.7,93,70,43,30.35,29.74,9,1,17,0.00
2013-1-6,44.1,31.1,20.0,31.1,26.1,18.3,94,83,56,30.26,29.57,6,1,13,0.00
2013-1-7,42.9,29.0,20.3,30.7,22.7,18.4,94,80,46,30.45,29.75,5,1,13,0.00
2013-1-8,47.5,33.6,19.4,30.6,27.1,17.6,94,79,50,30.46,29.20,7,1,17,0.00
2013-1-9,44.9,33.8,18.8,37.5,28.8,17.1,95,83,59,30.42,29.39,6,1,12,0.00
2013-1-10,47.5,39.8,27.5,29.9,25.4,23.2,88,57,41,30.25,29.44,10,2,26,0.00
2013-1-11,39.4,31.3,22.2,35.2,28.0,20.5,95,88,68,30.29,30.08,2,0,5,0.16
2013-1-12,42.9,39.6,36.3,41.8,38.5,35.0,96,96,95,30.14,30.04,2,0,2,0.04
2013-1-13,52.1,46.4,40.3,51.1,45.5,39.1,97,97,96,30.12,29.84,4,1,9,0.12
2013-1-14,61.2,51.4,41.2,54.1,43.8,29.5,97,77,43,29.92,29.43,6,2,15,0.00
2013-1-15,41.4,36.2,30.1,34.6,28.5,26.0,95,75,56,30.21,29.72,3,0,7,0.00
2013-1-16,33.2,31.9,29.5,31.5,29.7,25.8,95,92,75,30.22,29.88,3,0,6,0.04
2013-1-17,42.4,34.5,27.9,35.4,28.0,17.5,95,78,55,30.07,29.86,7,1,18,0.29
2013-1-18,29.7,21.7,15.2,17.5,4.2,-2.2,65,47,32,30.62,29.92,7,2,15,0.00
2013-1-19,49.5,37.4,19.9,34.0,24.8,6.5,79,61,42,30.49,29.57,9,2,16,0.06
2013-1-20,54.4,41.7,27.5,34.6,26.8,9.9,78,57,34,29.89,29.13,10,3,24,0.00
2013-1-21,27.8,23.8,16.1,20.7,11.6,6.0,93,61,42,30.27,29.89,6,1,14,0.00
2013-1-22,23.9,18.7,9.9,20.2,6.8,-3.2,93,63,34,30.30,29.88,8,2,17,0.00
2013-1-23,15.6,9.7,4.5,2.1,-4.7,-8.4,77,52,37,30.35,30.22,9,3,20,0.00
2013-1-24,19.5,9.8,-0.2,-4.5,-6.9,-9.1,75,48,30,30.44,30.16,14,3,24,0.00
2013-1-25,23.0,14.9,5.4,14.2,-3.0,-9.1,93,47,27,30.49,30.25,6,2,16,0.00
2013-1-26,25.2,15.4,5.9,13.8,3.8,-6.1,93,64,34,30.45,30.17,7,2,17,0.00
2013-1-27,30.9,19.0,11.6,6.4,3.0,0.1,67,51,30,30.68,30.44,6,2,16,0.00
2013-1-28,31.5,23.0,13.5,25.4,14.0,2.8,94,71,35,30.67,30.18,3,0,6,0.00
2013-1-29,34.4,30.0,25.2,32.8,28.6,23.7,95,94,93,30.39,30.18,2,0,4,0.19
2013-1-30,60.7,48.9,32.4,58.7,47.7,31.1,98,96,90,30.35,29.49,5,2,28,0.15
2013-1-31,61.2,48.1,30.3,60.2,39.3,16.3,98,74,42,29.64,28.98,34,8,36,0.74
2013-2-1,32.9,27.5,20.5,18.5,10.9,4.2,72,50,36,30.26,29.64,18,5,29,0.00
2013-2-2,42.9,23.4,13.8,13.6,8.5,3.3,71,53,38,30.44,30.15,9,2,15,0.00
2013-2-3,27.3,23.4,17.9,22.6,20.3,13.6,93,88,62,30.16,29.71,5,1,10,0.00
2013-2-4,29.7,22.7,16.9,20.6,12.1,6.0,93,66,39,29.93,29.70,13,4,23,0.00
2013-2-5,26.6,23.2,19.9,21.8,16.2,9.7,93,75,64,30.00,29.91,3,1,7,0.00
2013-2-6,39.4,29.2,22.0,27.5,18.9,5.3,94,68,41,30.28,29.90,10,2,17,0.02
2013-2-7,32.7,23.4,12.9,12.9,6.7,3.8,80,50,32,30.51,30.28,7,1,13,0.00
2013-2-8,32.4,27.5,17.2,31.1,24.8,12.4,95,90,68,30.46,29.55,21,3,25,0.02
2013-2-9,23.2,18.5,13.2,21.5,14.7,4.1,93,85,65,30.18,29.52,19,5,31,0.00
2013-2-10,43.2,20.3,3.1,31.8,8.9,0.1,93,64,29,30.37,30.18,8,2,12,0.20
2013-2-11,45.1,32.4,10.5,43.8,30.4,8.5,96,92,79,30.33,29.60,8,1,13,0.23
2013-2-12,44.5,37.6,26.2,41.3,29.6,24.4,96,74,54,29.88,29.61,16,4,24,0.00
2013-2-13,44.9,32.2,20.5,28.1,24.8,18.8,94,76,47,29.86,29.63,9,1,15,0.00
2013-2-14,46.8,34.2,24.5,29.3,23.7,20.4,94,69,37,29.96,29.61,9,2,15,0.00
2013-2-15,52.9,35.6,22.9,37.0,29.9,21.1,95,82,50,29.95,29.88,9,1,17,0.00
2013-2-16,37.2,33.1,27.2,34.2,28.5,18.6,95,84,58,29.92,29.68,12,2,24,0.03
2013-2-17,29.2,21.3,15.8,23.7,11.2,0.8,94,68,40,29.70,29.38,37,8,38,0.01
2013-2-18,31.5,21.2,13.2,3.8,1.5,-1.5,56,43,27,30.16,29.69,22,6,30,0.01
2013-2-19,48.6,34.7,17.2,42.5,25.2,1.7,96,70,48,30.17,29.62,7,1,14,0.32
2013-2-20,41.3,31.9,24.6,40.1,20.0,9.9,96,63,41,29.79,29.57,28,7,29,0.00
2013-2-21,35.2,27.3,22.5,16.5,14.3,11.4,73,58,43,30.20,29.78,24,6,29,0.00
2013-2-22,41.5,30.1,18.9,25.8,21.6,16.1,93,72,47,30.39,30.20,8,2,13,0.00
2013-2-23,38.7,32.9,25.3,32.9,29.4,23.5,95,87,73,30.34,29.91,4,1,8,0.11
2013-2-24,35.6,33.2,30.7,34.1,31.9,29.1,95,95,94,29.91,29.70,8,2,16,0.85
2013-2-25,40.8,33.9,28.3,35.2,30.9,26.8,95,89,71,30.25,29.90,6,1,10,0.13
2013-2-26,46.1,35.8,27.7,37.3,29.5,25.8,95,79,48,30.36,30.14,5,1,7,0.00
2013-2-27,42.2,39.0,35.8,40.9,37.8,32.3,96,95,87,30.15,29.58,10,3,18,1.27
2013-2-28,46.7,37.2,29.2,41.3,35.1,27.4,96,92,73,29.66,29.52,7,1,8,0.00
2013-3-1,43.6,36.3,28.3,36.1,29.5,26.8,95,77,58,29.68,29.52,10,2,16,0.00
2013-3-2,42.2,36.9,29.2,30.9,28.1,25.9,89,71,57,29.69,29.63,8,2,16,0.00
2013-3-3,42.9,35.3,31.1,32.4,28.7,25.6,95,77,60,29.64,29.56,9,3,11,0.00
2013-3-4,41.1,34.1,27.9,28.5,24.5,20.4,87,68,53,29.74,29.58,14,6,25,0.00
2013-3-5,46.7,36.1,29.9,33.7,28.1,23.0,95,74,51,30.05,29.74,12,2,17,0.00
2013-3-6,39.9,36.1,32.7,37.2,34.1,31.3,96,92,77,30.09,30.02,12,4,25,0.18
2013-3-7,35.7,31.6,29.7,32.8,29.9,28.2,95,93,83,30.03,29.96,10,5,22,0.21
2013-3-8,34.3,30.9,28.9,32.9,29.3,26.5,95,93,79,30.13,29.91,12,3,25,0.00
2013-3-9,48.6,34.2,23.7,33.7,26.8,21.9,94,76,46,30.35,30.13,8,2,14,0.73
2013-3-10,49.4,34.1,20.6,40.2,29.1,18.9,95,84,53,30.41,30.32,6,1,10,0.01
2013-3-11,53.7,42.2,33.7,41.7,37.7,32.4,96,85,60,30.32,29.44,8,2,15,0.00
2013-3-12,55.9,49.4,40.9,53.3,48.1,39.8,97,95,85,29.74,28.54,11,2,21,0.51
2013-3-13,51.9,42.9,28.1,50.6,32.4,21.5,97,70,36,29.64,28.58,15,4,23,0.14
2013-3-14,35.1,29.0,21.8,25.1,16.1,5.1,94,60,42,29.71,29.19,18,5,29,0.00
2013-3-15,42.7,31.5,18.9,29.8,15.7,7.2,90,54,28,29.81,29.03,16,4,23,0.00
2013-3-16,42.1,33.5,24.7,29.6,17.7,9.1,92,55,29,29.69,29.30,17,2,17,0.00
2013-3-17,39.2,29.6,19.8,18.8,12.5,4.2,86,51,25,30.26,29.67,16,3,24,0.00
2013-3-18,40.3,27.9,13.8,27.1,10.6,0.1,94,51,28,30.43,30.17,9,2,15,0.00
2013-3-19,36.9,32.2,28.1,35.5,30.8,26.6,95,95,91,30.17,29.58,10,3,16,0.47
2013-3-20,40.5,30.7,21.9,27.4,21.3,17.8,94,70,44,29.81,29.68,17,4,25,0.21
2013-3-21,37.7,29.4,19.8,28.8,23.6,17.0,94,80,50,29.81,29.60,11,1,13,0.10
2013-3-22,41.7,33.1,24.8,26.4,19.9,16.6,94,59,39,29.75,29.60,14,4,23,0.06
2013-3-23,43.4,35.2,26.9,24.6,20.9,18.3,83,57,39,29.81,29.68,18,6,34,0.00
2013-3-24,49.6,37.8,29.5,27.6,23.7,19.7,82,58,38,29.86,29.77,13,3,22,0.00
2013-3-25,45.2,36.2,27.8,35.4,30.5,26.1,94,81,56,29.78,29.54,10,2,19,0.00
2013-3-26,49.3,39.9,31.0,33.3,26.8,21.3,95,61,37,29.81,29.55,12,3,17,0.00
2013-3-27,54.9,40.9,22.7,31.5,24.7,19.9,94,56,31,29.92,29.78,14,2,18,0.00
2013-3-28,48.9,41.8,35.9,36.0,33.9,30.1,95,75,49,30.07,29.90,9,2,15,0.00
2013-3-29,58.2,45.1,30.4,36.0,31.9,27.9,95,64,34,30.12,30.04,10,2,17,0.00
2013-3-30,58.6,45.8,30.9,33.7,25.9,17.7,90,51,22,30.14,30.09,13,2,18,0.00
2013-3-31,60.2,43.2,23.2,44.3,29.3,21.5,97,64,26,30.17,29.80,12,2,18,0.03
2013-4-1,62.7,47.2,34.6,47.7,38.4,13.1,97,74,39,29.82,29.60,18,5,30,0.28
2013-4-2,41.4,34.1,25.0,19.8,14.9,10.8,72,46,31,29.98,29.82,18,6,30,0.00
2013-4-3,45.9,36.5,29.4,18.1,15.2,11.6,56,43,27,30.18,29.95,19,8,31,0.00
2013-4-4,57.7,41.1,23.6,29.4,19.0,13.3,77,44,21,30.32,30.10,12,3,18,0.00
2013-4-5,61.9,46.7,36.9,33.4,28.3,21.3,79,53,22,30.10,29.72,15,4,23,0.00
2013-4-6,47.8,37.5,26.9,26.9,14.4,6.0,69,41,19,30.34,29.92,13,4,23,0.00
2013-4-7,56.1,40.9,22.0,42.5,29.6,18.5,94,67,35,30.34,30.06,13,3,22,0.00
2013-4-8,67.5,52.6,38.8,45.5,40.9,35.0,97,69,32,30.17,30.00,11,2,15,0.00
2013-4-9,72.7,57.7,47.3,53.0,45.1,40.1,97,67,36,30.15,29.94,16,3,23,0.00
2013-4-10,68.2,53.9,43.8,51.3,47.3,42.6,97,80,50,30.07,29.93,11,2,11,0.14
2013-4-11,54.9,47.8,39.9,49.3,42.2,29.1,97,83,51,30.19,29.88,6,2,10,0.06
2013-4-12,40.7,38.7,37.2,38.4,36.7,31.9,96,93,73,30.20,29.80,9,3,13,0.53
2013-4-13,55.8,44.2,35.7,41.6,37.1,34.3,96,78,49,29.95,29.76,10,2,18,0.06
2013-4-14,53.5,44.0,33.3,41.0,33.4,26.1,96,69,39,30.21,29.93,13,3,23,0.00
2013-4-15,60.9,44.6,26.8,38.7,32.9,25.3,95,67,36,30.42,30.21,7,1,10,0.00
2013-4-16,63.3,50.1,32.4,51.8,42.4,31.0,96,77,54,30.42,30.14,10,3,26,0.00
2013-4-17,68.8,58.7,42.4,54.1,41.2,29.7,94,57,25,30.36,30.12,11,3,17,0.00
2013-4-18,63.9,50.0,33.2,47.7,37.2,30.0,96,67,35,30.46,30.19,10,2,22,0.00
2013-4-19,74.2,62.7,51.8,63.7,58.6,47.5,98,88,61,30.19,29.68,12,4,23,0.00
2013-4-20,64.6,54.1,43.9,63.3,42.6,26.0,98,69,38,30.19,29.62,13,4,23,0.55
2013-4-21,55.6,42.7,29.6,32.6,24.9,19.8,93,52,27,30.60,30.18,11,3,21,0.00
2013-4-22,53.8,41.5,28.1,38.4,31.5,26.0,95,71,36,30.70,30.51,10,2,16,0.00
2013-4-23,42.6,41.0,37.3,41.5,38.9,32.1,96,93,78,30.51,30.04,8,2,15,0.09
2013-4-24,75.3,54.7,41.0,52.4,45.3,39.6,97,75,29,30.04,29.84,10,3,18,0.10
2013-4-25,65.8,54.3,41.5,53.6,38.3,25.4,97,59,26,30.21,29.83,16,3,26,0.02
2013-4-26,64.8,48.5,32.8,45.1,37.4,28.8,96,69,35,30.39,30.21,8,2,13,0.00
2013-4-27,68.5,49.4,31.8,46.8,37.0,30.4,97,68,31,30.40,30.29,6,1,13,0.00
2013-4-28,70.3,52.4,33.2,43.8,35.4,29.0,96,59,29,30.34,30.22,8,2,15,0.00
2013-4-29,68.3,55.0,42.3,50.4,38.6,27.1,97,60,26,30.27,30.19,8,2,18,0.00
2013-4-30,72.5,54.9,37.4,43.9,33.5,21.9,96,52,19,30.34,30.21,7,1,11,0.00
2013-5-1,71.7,53.1,31.3,42.0,36.2,30.0,96,59,28,30.48,30.31,7,1,10,0.00
2013-5-2,78.6,55.3,39.4,53.1,42.3,38.4,97,68,27,30.47,30.36,7,1,14,0.00
2013-5-3,61.9,49.1,39.4,46.7,41.9,38.4,96,78,54,30.49,30.33,9,2,16,0.00
2013-5-4,61.9,47.1,33.1,47.6,37.7,29.5,97,74,34,30.35,30.26,9,2,15,0.00
2013-5-5,65.1,47.5,29.4,47.1,38.7,27.8,96,75,42,30.30,30.21,7,2,14,0.00
2013-5-6,75.7,53.4,34.2,50.8,43.7,32.9,97,74,35,30.27,30.15,6,1,9,0.00
2013-5-7,78.1,60.7,40.5,57.9,51.1,39.4,97,75,45,30.21,30.11,8,1,13,0.00
2013-5-8,72.8,62.0,52.0,64.8,58.7,51.2,98,90,66,30.22,30.03,8,2,14,0.12
2013-5-9,69.5,60.8,57.3,65.1,59.5,56.5,98,96,69,30.03,29.87,6,0,10,0.72
2013-5-10,80.9,66.5,52.2,62.9,55.8,51.4,98,72,37,29.97,29.87,8,1,9,0.00
2013-5-11,71.5,62.9,57.5,63.3,59.8,54.9,98,90,68,29.92,29.69,10,2,18,0.03
2013-5-12,73.2,61.4,46.8,61.5,52.2,31.7,98,75,40,29.78,29.58,12,2,23,0.02
2013-5-13,60.6,48.7,34.9,37.3,32.5,27.7,95,57,32,29.97,29.78,9,2,22,0.00
2013-5-14,60.5,49.1,35.3,36.9,33.0,28.5,94,57,32,30.01,29.93,11,2,16,0.00
2013-5-15,65.9,51.9,33.0,53.8,41.4,31.7,97,72,34,30.00,29.64,9,2,16,0.02
2013-5-16,81.4,66.3,48.5,52.7,44.9,36.1,97,54,21,29.78,29.60,14,3,24,0.00
2013-5-17,70.9,58.4,44.4,49.0,42.9,36.7,96,60,33,30.18,29.77,17,2,17,0.00
2013-5-18,73.9,58.8,40.5,52.8,44.5,36.6,97,65,29,30.31,30.16,5,1,9,0.00
2013-5-19,72.3,58.1,44.9,55.7,50.3,43.8,97,79,44,30.34,30.19,9,2,13,0.07
2013-5-20,82.8,68.3,55.6,66.1,61.4,54.8,98,81,50,30.19,29.95,8,2,16,0.02
2013-5-21,88.3,64.6,52.2,69.4,59.9,51.3,99,87,48,29.99,29.90,8,1,14,0.20
2013-5-22,74.1,60.0,50.7,67.3,57.2,49.9,98,91,75,30.02,29.84,6,1,15,0.04
2013-5-23,75.4,66.2,55.9,69.4,63.6,55.1,99,91,75,29.93,29.81,9,2,21,0.20
2013-5-24,70.9,62.9,48.8,68.0,61.8,48.0,99,96,84,29.81,29.65,8,2,14,1.37
2013-5-25,51.6,47.7,40.7,50.8,46.8,39.4,97,97,96,29.77,29.67,8,3,16,0.32
2013-5-26,60.1,49.0,39.2,43.0,40.1,38.0,96,74,45,30.05,29.66,19,4,32,0.01
2013-5-27,72.9,56.4,37.1,47.1,40.4,33.8,96,62,25,30.13,30.03,12,2,23,0.00
2013-5-28,76.9,59.3,39.0,56.9,46.4,37.9,97,68,30,30.25,30.12,6,1,10,0.00
2013-5-29,77.2,64.6,57.9,69.7,62.2,56.8,99,93,68,30.18,30.00,6,1,16,1.10
2013-5-30,88.0,74.6,61.7,71.3,66.7,61.1,99,79,49,30.13,30.03,14,2,16,0.41
2013-5-31,92.5,79.1,63.9,73.4,66.1,61.4,99,69,39,30.14,30.01,6,1,13,0.00
2013-6-1,90.5,78.6,66.7,70.1,65.5,62.0,88,66,41,30.03,29.93,8,2,15,0.00
2013-6-2,87.3,76.3,67.2,70.3,66.2,62.9,96,73,46,29.93,29.81,12,3,22,0.00
2013-6-3,78.0,68.4,60.6,69.1,65.5,53.1,99,91,68,29.86,29.80,8,1,10,0.73
2013-6-4,72.7,60.6,45.7,53.1,46.5,41.8,96,63,38,30.07,29.83,12,2,16,0.00
2013-6-5,75.9,61.5,44.7,55.0,48.1,42.7,97,66,35,30.21,30.07,8,1,13,0.00
2013-6-6,74.0,62.8,50.6,57.7,52.2,48.1,97,71,44,30.20,30.09,6,1,13,0.00
2013-6-7,60.6,56.3,54.4,59.9,55.6,53.4,98,97,96,30.09,29.76,8,1,16,3.43
2013-6-8,78.7,63.3,53.7,65.8,58.3,52.9,98,85,61,30.00,29.58,20,2,20,0.76
2013-6-9,80.1,66.8,52.8,61.0,56.3,51.9,98,73,42,30.16,30.00,7,2,16,0.00
2013-6-10,71.4,61.4,52.3,65.2,58.8,51.3,98,92,65,30.21,29.99,3,0,6,0.81
2013-6-11,66.9,59.8,56.9,62.4,58.5,56.1,98,96,84,29.99,29.56,5,1,8,1.25
2013-6-12,71.3,63.2,55.1,58.9,55.5,52.3,98,78,54,29.81,29.54,12,3,23,0.00
2013-6-13,64.6,55.8,48.7,62.6,54.4,47.9,98,95,81,29.80,29.61,6,1,11,0.96
2013-6-14,73.3,59.3,51.9,61.0,54.7,50.5,98,86,55,29.75,29.58,8,2,16,1.27
2013-6-15,78.9,65.4,51.7,56.1,49.9,42.1,97,63,30,29.96,29.75,8,2,15,0.00
2013-6-16,75.1,66.0,51.5,64.1,55.8,48.2,97,72,48,29.95,29.74,5,1,10,0.00
2013-6-17,85.2,70.0,57.7,66.0,61.1,56.6,98,77,40,29.94,29.80,7,2,23,0.67
2013-6-18,79.5,63.6,57.8,68.5,61.0,57.0,99,92,64,29.97,29.86,6,1,13,0.86
2013-6-19,76.7,63.7,54.6,60.3,54.8,47.9,98,76,38,30.13,29.87,6,1,10,0.11
2013-6-20,80.2,65.9,48.9,62.5,52.8,46.5,98,68,35,30.29,30.13,6,1,11,0.00
2013-6-21,83.3,69.5,54.6,68.3,60.3,53.8,97,74,49,30.29,30.22,8,1,12,0.00
2013-6-22,83.9,71.6,61.4,64.5,59.4,54.9,88,67,44,30.26,30.17,8,1,13,0.00
2013-6-23,88.2,75.4,61.3,73.1,65.0,55.5,89,71,51,30.18,30.06,8,2,15,0.00
2013-6-24,91.9,79.3,67.9,74.0,69.9,63.8,99,76,48,30.07,29.95,7,2,14,0.03
2013-6-25,90.9,77.1,66.4,72.0,68.6,66.1,99,78,47,29.96,29.78,10,2,18,0.24
2013-6-26,86.7,75.5,66.7,72.8,69.5,66.4,99,83,56,29.88,29.75,8,1,16,0.00
2013-6-27,70.8,66.1,63.6,68.2,65.2,63.0,99,97,90,29.87,29.75,4,0,8,0.01
2013-6-28,82.2,71.4,62.9,75.7,68.8,62.3,99,92,69,29.76,29.54,8,2,15,0.28
2013-6-29,83.3,74.5,69.6,72.1,69.3,65.2,99,85,59,29.75,29.54,10,2,16,0.01
2013-6-30,82.9,75.3,69.2,74.6,70.9,68.3,99,87,71,29.97,29.75,6,1,10,0.06
2013-7-1,84.5,74.6,70.6,76.8,72.6,70.2,99,94,71,30.11,29.97,7,1,13,0.05
2013-7-2,83.9,75.2,68.3,75.6,72.1,67.1,99,90,69,30.21,30.11,6,1,11,0.33
2013-7-3,87.3,75.3,63.3,74.6,70.1,62.6,99,85,62,30.25,30.18,6,2,14,0.00
2013-7-4,90.7,81.3,72.0,76.4,73.8,71.7,99,79,57,30.27,30.18,7,2,13,0.00
2013-7-5,92.8,82.8,73.1,76.5,73.0,69.6,95,74,50,30.23,30.11,8,2,18,0.00
2013-7-6,91.2,81.2,72.5,75.5,72.3,69.1,96,76,50,30.14,30.05,6,2,15,0.04
2013-7-7,93.3,78.0,68.6,75.6,72.1,68.3,99,84,52,30.08,29.96,5,1,10,0.05
2013-7-8,89.9,76.9,66.6,75.3,71.3,66.3,99,85,50,30.09,29.94,7,1,13,0.74
2013-7-9,76.7,69.4,66.1,72.3,68.2,65.3,99,96,83,30.13,30.05,4,0,6,0.00
2013-7-10,85.6,74.3,67.2,75.7,71.6,66.9,99,92,70,30.08,29.84,6,1,13,0.02
2013-7-11,80.8,74.6,69.4,75.6,72.9,68.8,99,95,78,29.95,29.81,5,0,8,0.24
2013-7-12,75.9,69.4,64.5,68.9,63.8,59.3,99,83,68,30.20,29.94,6,1,16,0.00
2013-7-13,76.5,69.7,64.7,74.0,68.8,62.9,99,97,89,30.34,30.20,3,0,6,0.11
2013-7-14,90.9,79.2,71.1,76.7,72.6,68.5,99,83,49,30.35,30.24,6,1,11,0.00
2013-7-15,91.9,80.0,70.6,78.3,73.1,70.3,99,82,51,30.25,30.16,5,0,10,0.00
2013-7-16,93.1,79.8,65.9,74.0,70.0,64.1,99,76,42,30.22,30.13,7,1,13,0.00
2013-7-17,94.3,80.5,68.4,76.9,71.3,65.7,99,77,42,30.19,30.01,7,1,13,0.00
2013-7-18,94.9,83.3,73.4,78.0,73.3,68.9,96,74,45,30.03,29.94,5,1,10,0.00
2013-7-19,94.7,83.9,72.9,78.0,74.7,71.4,99,76,48,29.94,29.76,8,2,16,0.00
2013-7-20,92.1,81.8,70.6,77.4,74.9,70.1,99,81,53,29.79,29.67,6,1,14,0.00
2013-7-21,87.3,75.7,66.4,70.2,67.5,60.8,99,78,45,29.96,29.79,5,1,10,0.00
2013-7-22,88.1,73.7,65.1,72.8,68.0,63.7,99,84,48,30.00,29.84,5,1,10,0.00
2013-7-23,85.0,73.3,69.9,80.1,72.2,68.9,100,97,72,29.84,29.53,8,0,15,2.02
2013-7-24,84.9,76.5,67.9,77.9,68.2,57.8,99,77,54,29.91,29.56,8,2,18,0.00
2013-7-25,68.1,61.2,58.4,60.0,56.5,51.3,98,85,69,30.03,29.91,6,2,13,0.67
2013-7-26,71.9,64.1,58.9,69.2,63.1,58.3,99,97,88,29.98,29.89,7,2,16,0.65
2013-7-27,83.5,70.6,58.8,70.3,64.4,58.2,99,83,50,30.04,29.95,5,1,10,0.00
2013-7-28,87.6,72.7,63.3,73.1,68.5,62.6,99,88,53,29.98,29.93,6,1,10,0.00
2013-7-29,83.8,72.9,64.6,74.3,69.4,64.0,99,90,70,30.02,29.93,4,1,8,0.01
2013-7-30,83.5,69.5,57.3,68.0,60.4,55.0,99,76,40,30.08,29.99,8,1,13,0.00
2013-7-31,83.3,69.9,56.9,67.1,61.3,56.1,99,78,45,30.11,30.01,5,1,10,0.00
2013-8-1,81.5,69.5,59.9,70.6,63.1,59.3,99,82,54,30.01,29.84,5,1,10,0.00
2013-8-2,82.8,71.1,63.7,70.4,64.3,57.7,99,82,46,29.84,29.75,10,1,22,0.34
2013-8-3,79.1,70.1,62.1,66.3,64.1,61.2,98,82,55,29.83,29.77,6,1,10,0.00
2013-8-4,80.2,66.5,54.7,63.1,57.9,53.9,98,77,45,29.82,29.74,9,1,16,0.00
2013-8-5,77.0,62.4,51.3,57.1,50.8,42.1,97,71,30,29.97,29.82,9,2,16,0.00
2013-8-6,82.3,64.1,47.1,61.5,52.4,46.1,98,71,34,30.11,29.96,5,1,8,0.00
2013-8-7,80.8,68.6,50.9,66.6,56.5,47.3,98,69,34,30.15,30.07,6,1,13,0.00
2013-8-8,80.2,71.1,62.1,72.5,67.9,58.8,99,90,74,30.07,30.00,5,1,10,0.24
2013-8-9,75.3,72.5,70.4,74.9,71.9,70.1,99,98,94,30.00,29.73,6,1,15,1.46
2013-8-10,83.2,72.4,57.4,73.1,63.8,54.3,99,78,43,29.95,29.77,10,2,18,0.00
2013-8-11,80.3,65.8,51.6,61.1,56.1,50.5,98,75,42,30.05,29.95,6,1,10,0.00
2013-8-12,83.2,69.3,58.1,65.6,60.7,55.0,98,78,43,29.99,29.87,6,1,10,0.00
2013-8-13,75.6,66.9,60.7,70.6,65.0,60.1,99,94,72,29.88,29.63,4,0,6,0.01
2013-8-14,73.9,65.5,55.7,63.6,55.7,51.3,98,73,48,29.89,29.62,12,2,23,0.01
2013-8-15,77.4,63.0,49.6,57.3,52.9,48.5,97,74,41,30.05,29.89,6,1,14,0.00
2013-8-16,81.5,65.7,52.6,60.4,56.1,51.8,98,75,38,30.13,30.03,7,1,13,0.00
2013-8-17,82.8,66.5,51.5,66.1,58.7,50.7,98,79,42,30.25,30.13,6,0,10,0.00
2013-8-18,82.4,66.7,55.6,69.8,60.6,54.6,99,83,43,30.23,30.03,4,0,6,0.00
2013-8-19,82.6,69.9,57.3,65.4,60.9,55.2,98,76,41,30.03,29.95,7,1,11,0.00
2013-8-20,86.2,72.2,60.3,66.6,62.8,57.7,98,76,41,30.06,29.93,6,1,8,0.00
2013-8-21,88.3,72.9,58.3,69.3,63.9,57.7,99,77,43,30.13,29.99,7,1,10,0.00
2013-8-22,84.4,73.3,63.3,72.3,68.6,62.6,99,86,63,30.00,29.80,7,1,15,0.00
2013-8-23,79.9,71.0,59.8,70.7,62.5,53.5,99,77,43,30.06,29.78,8,1,19,0.00
2013-8-24,79.9,63.2,49.9,56.8,51.9,46.6,97,72,32,30.29,30.06,4,1,13,0.00
2013-8-25,83.8,65.9,48.7,61.2,54.0,47.8,98,71,34,30.32,30.14,6,1,8,0.00
2013-8-26,79.2,70.7,64.2,67.9,63.2,57.9,93,78,61,30.15,29.85,11,1,16,0.00
2013-8-27,83.2,71.6,63.4,73.3,68.2,62.8,99,90,64,29.85,29.79,5,0,8,0.15
2013-8-28,87.7,71.5,59.6,70.4,64.9,58.8,99,83,44,29.93,29.80,4,0,7,0.00
2013-8-29,66.8,63.9,60.4,66.5,63.1,59.8,99,97,91,30.01,29.90,6,1,14,0.00
2013-8-30,82.8,69.1,60.8,69.3,64.8,60.2,99,88,60,29.97,29.80,8,1,11,0.00
2013-8-31,80.3,73.4,66.6,73.4,71.0,66.3,99,92,79,29.82,29.76,6,1,10,0.00
2013-9-1,78.7,72.1,68.6,78.2,71.8,68.2,100,99,96,29.85,29.76,5,0,10,0.39
2013-9-2,80.8,73.5,68.4,77.0,72.0,68.1,99,95,77,29.83,29.69,6,1,13,0.48
2013-9-3,79.2,71.6,60.9,72.0,68.6,60.3,99,91,72,29.76,29.66,6,1,9,0.00
2013-9-4,81.0,66.3,54.9,63.1,58.3,54.1,98,79,45,29.87,29.75,8,1,15,0.00
2013-9-5,70.9,61.1,48.7,65.1,57.0,47.8,98,88,55,30.05,29.80,8,1,16,0.07
2013-9-6,70.5,53.8,40.7,50.4,45.1,39.6,97,77,35,30.17,30.00,8,1,13,0.00
2013-9-7,80.4,62.0,46.3,58.8,51.7,45.5,97,73,36,30.00,29.81,7,1,11,0.00
2013-9-8,75.4,64.3,47.5,64.0,54.3,41.7,98,72,37,29.99,29.70,12,2,23,0.00
2013-9-9,69.7,55.0,39.2,52.8,45.8,38.2,97,75,42,30.16,29.99,7,1,13,0.00
2013-9-10,76.1,66.6,53.9,70.4,63.7,51.9,99,90,80,30.08,30.00,7,1,15,0.01
2013-9-11,95.1,78.9,66.7,78.4,71.7,66.4,99,81,45,30.05,29.95,6,1,12,0.00
2013-9-12,86.7,75.7,68.2,74.5,70.9,67.7,99,86,60,29.95,29.64,7,2,19,0.46
2013-9-13,79.1,68.7,58.6,71.5,65.3,56.0,99,90,63,29.68,29.55,8,1,13,0.10
2013-9-14,69.0,59.5,49.3,57.5,54.5,48.5,97,84,61,29.96,29.68,8,1,14,0.00
2013-9-15,72.4,56.8,43.4,55.7,50.1,42.1,97,81,46,30.09,29.96,7,1,13,0.00
2013-9-16,68.7,56.5,48.1,60.0,52.4,40.1,98,87,63,30.14,29.93,11,1,15,0.02
2013-9-17,64.7,49.9,36.9,46.2,40.5,35.6,97,73,41,30.33,30.14,7,1,14,0.00
2013-9-18,74.8,55.0,36.5,52.5,44.5,35.2,97,74,31,30.21,30.07,6,1,12,0.00
2013-9-19,81.6,60.1,42.1,57.3,50.8,41.0,97,77,36,30.08,29.99,5,1,7,0.00
2013-9-20,83.3,61.5,45.9,58.8,52.9,45.1,98,78,35,30.05,29.95,4,1,8,0.00
2013-9-21,76.1,64.5,52.8,68.0,61.1,51.9,98,90,62,29.97,29.70,7,2,15,0.00
2013-9-22,71.9,64.0,47.2,69.0,58.3,46.4,99,83,51,29.75,29.58,10,2,18,0.58
2013-9-23,65.7,52.1,40.1,48.8,44.0,38.9,97,76,47,29.92,29.75,10,2,16,0.00
2013-9-24,69.2,53.6,40.2,50.2,44.2,39.2,97,74,39,29.91,29.78,10,2,16,0.00
2013-9-25,70.9,55.0,40.8,55.6,48.6,39.7,97,81,52,29.93,29.78,7,1,15,0.00
2013-9-26,68.8,57.3,49.0,53.9,50.9,47.6,97,81,51,30.07,29.93,6,1,11,0.00
2013-9-27,66.1,57.0,46.2,56.4,52.9,45.3,97,87,66,30.20,30.07,7,1,13,0.00
2013-9-28,74.5,55.2,40.7,59.4,49.5,39.6,98,84,51,30.29,30.17,5,1,8,0.00
2013-9-29,70.9,52.8,42.5,57.7,47.2,41.4,97,85,42,30.20,30.05,6,0,10,0.00
2013-9-30,70.4,55.5,45.4,55.0,50.0,44.6,97,85,44,30.05,29.89,5,1,10,0.00
2013-10-1,79.6,57.8,39.4,58.0,49.7,38.4,97,80,37,29.90,29.84,7,1,15,0.00
2013-10-2,80.2,64.2,50.3,62.2,57.3,49.3,98,81,52,29.93,29.83,9,2,19,0.00
2013-10-3,79.0,60.3,46.5,58.9,51.8,45.2,98,78,33,30.07,29.93,5,0,10,0.00
2013-10-4,62.9,55.1,46.7,60.6,53.8,45.9,98,95,76,30.06,29.98,5,0,7,0.55
2013-10-5,70.1,61.2,55.9,63.4,59.0,55.1,98,93,75,30.09,30.01,3,0,5,0.01
2013-10-6,59.8,57.4,55.6,59.2,56.6,54.8,98,97,97,30.17,30.07,3,0,8,0.51
2013-10-7,76.7,65.6,56.3,72.7,63.5,55.5,99,93,79,30.08,29.83,10,2,20,0.06
2013-10-8,67.7,56.0,43.1,56.6,47.9,42.0,97,77,42,30.29,29.89,7,2,15,0.00
2013-10-9,63.4,48.8,38.9,49.2,43.6,37.9,97,84,55,30.40,30.27,6,1,15,0.00
2013-10-10,66.1,51.0,40.4,56.6,48.9,39.4,97,93,72,30.27,30.11,4,1,8,0.00
2013-10-11,70.7,56.4,47.9,59.5,52.2,46.9,97,87,60,30.11,30.06,6,1,10,0.00
2013-10-12,61.7,53.7,46.1,59.6,52.6,45.3,98,96,86,30.32,30.07,5,1,14,0.00
2013-10-13,62.2,51.0,37.3,53.2,47.4,36.0,97,89,63,30.39,30.29,7,1,13,0.00
2013-10-14,66.9,46.8,29.4,50.5,40.6,27.6,97,82,41,30.31,30.19,6,0,7,0.00
2013-10-15,70.6,56.2,44.5,55.5,50.7,43.4,97,84,53,30.21,30.14,5,1,8,0.00
2013-10-16,59.1,55.3,52.3,58.0,54.5,51.4,98,97,95,29.94,29.85,3,0,3,0.00
2013-10-17,72.9,59.9,49.5,63.1,56.9,48.7,98,91,66,29.86,29.69,7,1,13,0.03
2013-10-18,68.6,59.2,41.6,61.9,51.7,40.5,98,79,46,29.84,29.59,12,2,23,0.06
2013-10-19,67.4,52.0,36.1,50.4,43.7,34.8,97,77,40,29.91,29.69,6,1,10,0.00
2013-10-20,63.3,52.2,38.2,51.6,41.3,33.0,97,71,34,29.93,29.64,12,2,22,0.00
2013-10-21,68.9,50.8,33.8,46.7,40.5,32.5,96,72,36,30.05,29.93,8,1,13,0.00
2013-10-22,70.7,52.4,38.4,55.7,46.7,37.3,97,83,47,29.93,29.67,8,1,12,0.00
2013-10-23,51.8,43.2,33.6,41.1,36.7,32.3,96,80,51,29.70,29.52,7,0,10,0.00
2013-10-24,54.5,43.1,31.6,37.3,31.6,25.3,95,67,35,29.78,29.56,11,2,19,0.00
2013-10-25,50.2,38.4,27.8,35.9,29.9,26.3,95,74,44,30.04,29.78,9,2,16,0.00
2013-10-26,56.3,41.3,25.4,39.3,30.7,23.9,95,70,33,30.03,29.79,12,2,24,0.00
2013-10-27,57.3,46.4,33.2,41.7,35.6,29.6,96,69,40,29.95,29.73,12,2,22,0.01
2013-10-28,61.3,43.6,27.9,36.9,32.7,26.4,95,69,39,30.24,29.95,11,2,22,0.00
2013-10-29,51.5,35.5,24.6,30.7,25.5,22.3,94,71,34,30.32,30.23,9,1,15,0.00
2013-10-30,56.3,39.3,24.8,43.5,35.8,22.9,96,89,60,30.24,30.11,6,0,13,0.00
2013-10-31,62.9,48.1,29.9,61.2,46.7,28.4,98,95,86,30.12,29.76,8,1,18,0.03
2013-11-1,70.1,64.0,58.9,65.1,59.8,55.8,98,86,70,29.76,29.44,13,4,30,0.14
2013-11-2,69.1,54.8,44.6,55.8,46.6,40.2,97,78,37,29.66,29.56,6,1,10,0.00
2013-11-3,50.6,41.7,30.7,47.6,31.7,15.9,96,69,37,30.29,29.65,9,2,16,0.00
2013-11-4,45.9,30.8,20.8,21.8,19.1,15.5,93,65,32,30.57,30.28,6,2,13,0.00
2013-11-5,52.8,35.4,19.9,34.3,27.2,18.2,94,75,42,30.58,30.40,6,1,8,0.00
2013-11-6,62.1,49.3,34.8,52.9,43.0,33.3,97,81,50,30.40,29.98,8,2,16,0.00
2013-11-7,68.9,53.6,38.0,60.6,51.4,34.8,98,93,70,29.99,29.63,12,3,32,0.25
2013-11-8,50.1,38.0,26.4,37.6,28.7,22.4,94,71,45,29.97,29.72,14,3,26,0.00
2013-11-9,45.7,35.3,24.3,32.5,26.0,22.2,94,71,42,30.09,29.92,12,2,22,0.00
2013-11-10,57.9,45.9,38.9,45.4,37.8,32.3,97,75,48,29.93,29.68,16,2,31,0.04
2013-11-11,53.0,45.3,36.0,35.6,29.8,26.0,73,55,37,30.02,29.78,14,4,22,0.04
2013-11-12,49.8,35.8,22.4,41.4,27.0,15.0,96,71,55,30.06,29.80,17,4,28,0.08
2013-11-13,37.7,27.1,18.9,18.2,15.4,11.5,89,63,40,30.16,30.04,11,2,22,0.00
2013-11-14,51.9,38.3,24.9,25.4,21.4,16.5,71,52,34,30.09,30.01,13,2,21,0.00
2013-11-15,62.7,44.6,26.9,34.6,24.5,17.0,90,49,21,30.17,30.07,7,1,13,0.00
2013-11-16,61.9,43.6,29.5,40.2,31.1,24.9,95,66,27,30.28,30.13,7,1,11,0.00
2013-11-17,60.9,46.8,28.1,57.1,44.2,26.6,97,91,70,30.24,29.83,4,1,10,0.06
2013-11-18,66.8,58.3,47.5,62.0,48.7,32.1,98,73,41,29.83,29.57,14,3,23,0.25
2013-11-19,48.5,40.1,30.4,33.4,23.6,16.9,64,52,40,30.21,29.64,16,5,27,0.00
2013-11-20,42.8,29.8,16.9,17.4,15.6,11.9,93,58,29,30.54,30.21,8,2,16,0.00
2013-11-21,48.9,31.2,15.3,33.1,21.6,13.6,93,71,37,30.56,30.33,7,1,10,0.00
2013-11-22,48.9,43.6,37.9,48.1,42.1,32.9,97,94,82,30.33,29.78,3,0,5,0.12
2013-11-23,47.9,40.7,28.8,47.0,27.5,15.0,97,61,34,29.87,29.73,17,6,30,0.13
2013-11-24,28.9,23.1,18.9,16.8,4.9,-5.2,69,47,25,30.12,29.73,21,8,40,0.00
2013-11-25,33.7,23.9,13.4,19.7,4.9,-3.7,63,45,22,30.28,30.11,12,3,19,0.00
2013-11-26,41.8,36.2,30.9,36.2,25.1,18.6,95,66,42,30.27,29.97,6,1,15,0.15
2013-11-27,61.4,51.5,36.9,60.8,50.6,34.2,98,97,89,29.97,29.21,23,4,29,2.05
2013-11-28,37.6,29.6,20.4,34.4,17.3,7.0,92,61,38,30.36,29.44,19,6,30,0.00
2013-11-29,35.7,25.8,17.5,17.7,12.9,3.6,89,59,39,30.66,30.36,14,2,16,0.00
2013-11-30,35.1,22.7,11.7,23.7,14.9,7.9,93,73,47,30.69,30.35,5,1,8,0.00
2013-12-1,37.7,33.4,27.6,36.3,31.7,23.2,95,94,83,30.35,29.95,5,1,8,0.16
2013-12-2,40.1,37.2,35.7,39.1,36.0,34.3,96,95,95,29.95,29.86,4,1,6,0.00
2013-12-3,49.6,37.4,28.7,40.3,34.3,27.2,96,89,60,29.88,29.82,6,1,13,0.00
2013-12-4,46.7,32.5,23.9,34.9,28.3,22.2,95,86,54,30.12,29.88,7,1,10,0.00
2013-12-5,55.2,42.4,28.7,54.3,41.3,27.2,97,96,89,30.13,29.90,7,1,15,0.00
2013-12-6,57.2,49.6,34.8,56.4,47.8,33.4,97,93,77,30.10,29.86,9,2,15,0.38
2013-12-7,40.9,32.4,22.5,34.3,28.5,20.8,95,86,63,30.37,30.02,14,2,26,0.14
2013-12-8,31.5,26.5,19.5,23.4,18.7,15.3,93,73,54,30.52,30.37,5,0,7,0.14
2013-12-9,37.7,31.8,25.2,36.3,30.1,19.6,95,94,71,30.41,29.83,6,1,10,0.31
2013-12-10,32.7,29.2,22.3,31.3,27.7,20.6,95,94,90,29.93,29.72,8,1,13,0.00
2013-12-11,29.4,22.4,17.5,22.6,19.2,15.8,93,88,74,30.14,29.93,8,1,16,0.02
2013-12-12,25.1,17.2,6.8,18.3,9.2,2.6,93,73,41,30.19,29.97,12,1,23,0.00
2013-12-13,29.7,20.6,8.5,19.5,11.7,6.7,92,69,52,30.29,29.90,12,3,22,0.00
2013-12-14,26.9,14.3,10.3,25.4,6.8,-3.4,94,73,49,30.50,30.01,8,1,13,0.00
2013-12-15,36.4,28.5,22.6,35.0,26.9,20.9,95,94,91,30.01,29.34,12,3,19,0.20
2013-12-16,29.4,22.1,9.9,22.4,13.1,6.7,93,70,45,30.11,29.66,14,3,26,0.01
2013-12-17,18.2,10.3,-2.4,16.3,8.4,-4.4,93,92,83,30.16,29.84,9,1,16,0.00
2013-12-18,35.1,24.1,15.2,24.0,19.5,13.5,93,84,57,30.01,29.78,12,2,19,0.08
2013-12-19,44.9,31.8,20.9,30.2,24.7,19.2,93,76,48,30.05,29.92,11,2,19,0.22
2013-12-20,55.8,41.0,28.9,39.6,33.2,27.4,95,76,47,30.05,29.91,6,1,14,0.54
2013-12-21,59.1,49.5,38.9,51.6,45.5,35.6,97,86,71,29.97,29.88,6,1,14,0.02
2013-12-22,66.3,51.6,36.6,62.5,50.1,35.3,98,95,71,29.98,29.77,17,2,22,0.00
2013-12-23,37.7,34.9,33.1,36.2,33.6,31.6,95,95,95,30.04,29.91,7,1,11,0.74
2013-12-24,38.0,31.8,25.6,36.6,25.3,14.0,95,78,53,30.14,29.99,10,2,15,0.00
2013-12-25,25.8,17.9,11.4,13.7,6.4,1.0,93,62,41,30.46,30.14,15,3,23,0.00
2013-12-26,32.9,24.0,11.6,30.7,21.5,9.5,95,90,83,30.41,30.02,9,1,15,0.00
2013-12-27,34.7,25.7,17.6,23.4,20.3,15.9,93,81,57,30.20,30.12,10,2,16,0.02
2013-12-28,48.2,31.8,19.3,30.3,24.9,17.5,94,78,45,30.15,29.96,11,2,22,0.00
2013-12-29,44.2,35.5,26.5,39.7,33.6,24.9,96,93,68,29.97,29.35,13,1,19,1.15
2013-12-30,39.7,31.2,18.6,38.2,23.4,9.8,96,75,44,30.09,29.47,17,3,23,0.00
2013-12-31,25.3,18.7,12.8,15.4,8.8,-0.3,90,66,47,30.11,29.94,9,2,15,0.00
2014-1-1,28.8,19.7,11.7,14.9,9.0,5.2,87,64,43,30.29,30.11,13,2,19,0.00
2014-1-2,19.9,12.7,0.5,17.4,10.8,-1.5,93,92,76,30.27,29.71,12,3,24,0.00